Weather History for Air Force Academy, CO

Change the Weather History Date:

Sunday, March 17, 2013

  Actual Average Record
Temperature  
Mean Temperature 39 °F -  
Max Temperature 56 °F 49 °F 69 °F (2007)
Min Temperature 23 °F 26 °F 15 °F (2006)
Degree Days  
Heating Degree Days 26    
Moisture  
Dew Point 22 °F    
Average Humidity 50    
Maximum Humidity 98    
Minimum Humidity 18    
Precipitation  
Precipitation 0.01 in - - ()
Sea Level Pressure  
Sea Level Pressure 29.67 in    
Wind  
Wind Speed 12 mph (West)    
Max Wind Speed 26 mph    
Max Gust Speed 37 mph    
Visibility 10 miles    
Events Rain    
Averages and records for this station are not official NWS values.
T = Trace of Precipitation, MM = Missing Value Source: NWS Daily Summary

Daily Weather History Graph

Daily Weather History Graph

Search for Another Location

Airport:

Trip Planner

Search our weather history database for the weather conditions in past years. The results will help you decide how hot, cold, wet, or windy it might be!

Date:

Astronomy

Mar. 17, 2013 Rise Set
Actual Time 7:06 AM MDT 7:08 PM MDT
Civil Twilight 6:40 AM MDT 7:35 PM MDT
Nautical Twilight 6:09 AM MDT 8:06 PM MDT
Astronomical Twilight 5:37 AM MDT 8:37 PM MDT
Moon 10:24 AM MDT (3/17) 12:15 AM MDT (3/17)
Length of Visible Light 12h 54m
Length of Day
12h 01m
Waxing Crescent, 32% of the Moon is Illuminated
Mar 17
Waxing Crescent
Mar 19
First Quarter
Mar 27
Full
Apr 2
Last Quarter
Apr 10
New

Hourly Weather History & Observations

Time (MDT) Temp. Windchill Dew Point Humidity Pressure Visibility Wind Dir Wind Speed Gust Speed Precip Events Conditions
12:58 AM 32.4 °F 27.9 °F 30.9 °F 94% 29.84 in 10.0 mi North 4.6 mph - N/A   Clear
1:58 AM 30.4 °F 26.9 °F 29.8 °F 98% 29.82 in 10.0 mi North 3.5 mph - N/A   Clear
2:58 AM 28.8 °F 23.7 °F 27.9 °F 96% 29.82 in 10.0 mi NNW 4.6 mph - N/A   Clear
3:58 AM 28.2 °F 22.0 °F 27.3 °F 96% 29.78 in 10.0 mi North 5.8 mph - N/A   Partly Cloudy
4:58 AM 25.5 °F 18.7 °F 24.8 °F 97% 29.78 in 10.0 mi North 5.8 mph - N/A   Clear
5:58 AM 24.6 °F - 23.2 °F 94% 29.76 in 10.0 mi East 1.2 mph - N/A   Clear
6:58 AM 25.0 °F 18.1 °F 23.2 °F 93% 29.82 in 10.0 mi ENE 5.8 mph - N/A   Clear
7:58 AM 23.7 °F 17.8 °F 21.4 °F 91% 29.80 in 10.0 mi North 4.6 mph - N/A   Clear
8:58 AM 29.1 °F 25.4 °F 26.4 °F 90% 29.77 in 10.0 mi NW 3.5 mph - N/A   Clear
9:58 AM 34.9 °F - 24.8 °F 67% 29.73 in 10.0 mi Variable 1.2 mph - N/A   Clear
10:58 AM 39.2 °F 34.2 °F 29.7 °F 69% 29.65 in 10.0 mi SSE 6.9 mph - N/A   Partly Cloudy
11:48 AM 50.0 °F - 26.6 °F 40% 29.66 in 10.0 mi West 13.8 mph 21.9 mph N/A   Clear
11:58 AM 49.6 °F - 26.4 °F 41% 29.60 in 10.0 mi WSW 19.6 mph 24.2 mph N/A   Clear
12:37 PM 53.6 °F - 23.0 °F 30% 29.63 in 10.0 mi West 16.1 mph 25.3 mph N/A   Clear
12:58 PM 54.1 °F - 21.0 °F 27% 29.56 in 10.0 mi West 13.8 mph 26.5 mph N/A   Clear
1:04 PM 53.6 °F - 19.4 °F 26% 29.62 in 10.0 mi WSW 11.5 mph 26.5 mph N/A   Clear
1:58 PM 53.4 °F - 16.5 °F 23% 29.51 in 10.0 mi West 19.6 mph 27.6 mph N/A   Clear
1:59 PM 53.6 °F - 15.8 °F 22% 29.58 in 10.0 mi WNW 19.6 mph 28.8 mph N/A   Partly Cloudy
2:44 PM 55.4 °F - 15.8 °F 21% 29.57 in 10.0 mi West 24.2 mph 32.2 mph N/A   Clear
2:58 PM 54.9 °F - 14.7 °F 21% 29.50 in 10.0 mi West 9.2 mph 29.9 mph 0.01 in   Clear
3:02 PM 55.4 °F - 12.2 °F 18% 29.56 in 10.0 mi West 17.3 mph 29.9 mph N/A   Clear
3:21 PM 55.4 °F - 12.2 °F 18% 29.56 in 10.0 mi WSW 25.3 mph 32.2 mph N/A   Clear
3:58 PM 53.2 °F - 11.5 °F 19% 29.52 in 10.0 mi West 23.0 mph 27.6 mph N/A   Clear
4:17 PM 51.8 °F - 14.0 °F 22% 29.60 in 10.0 mi West 19.6 mph 25.3 mph N/A   Clear
4:20 PM 51.8 °F - 14.0 °F 22% 29.60 in 10.0 mi WSW 20.7 mph 31.1 mph N/A   Clear
4:21 PM 51.8 °F - 14.0 °F 22% 29.61 in 10.0 mi SW 19.6 mph 31.1 mph N/A   Clear
4:23 PM 51.8 °F - 14.0 °F 22% 29.60 in 10.0 mi West 25.3 mph 36.8 mph N/A   Clear
4:24 PM 51.8 °F - 14.0 °F 22% 29.61 in 10.0 mi WNW 26.5 mph 36.8 mph N/A   Clear
4:25 PM 51.8 °F - 14.0 °F 22% 29.61 in 10.0 mi WNW 24.2 mph 36.8 mph N/A Rain Light Rain
4:40 PM 50.0 °F - 21.2 °F 32% 29.60 in 10.0 mi WNW 17.3 mph 24.2 mph N/A   Partly Cloudy
4:58 PM 48.7 °F - 20.8 °F 33% 29.59 in 10.0 mi WNW 19.6 mph - 0.00 in   Clear
5:28 PM 46.4 °F 39.8 °F 23.0 °F 40% 29.65 in 9.0 mi West 16.1 mph 25.3 mph N/A   Clear
5:31 PM 44.6 °F 35.7 °F 28.4 °F 53% 29.66 in 6.0 mi West 24.2 mph 31.1 mph N/A Rain Light Rain
5:32 PM 44.6 °F 35.7 °F 30.2 °F 57% 29.66 in 5.0 mi West 24.2 mph 31.1 mph N/A   Haze
5:33 PM 44.6 °F 35.7 °F 32.0 °F 61% 29.67 in 5.0 mi West 24.2 mph 31.1 mph N/A Rain Light Rain
5:38 PM 41.0 °F 34.3 °F 32.0 °F 70% 29.68 in 5.0 mi West 11.5 mph 31.1 mph N/A   Mostly Cloudy
5:43 PM 39.2 °F 32.0 °F 32.0 °F 75% 29.66 in 7.0 mi SW 11.5 mph - N/A   Scattered Clouds
5:49 PM 39.2 °F 30.8 °F 32.0 °F 75% 29.66 in 10.0 mi WSW 15.0 mph - N/A   Scattered Clouds
5:58 PM 40.1 °F 31.6 °F 31.1 °F 70% 29.68 in 10.0 mi WSW 16.1 mph - 0.00 in   Scattered Clouds
6:58 PM 39.7 °F 29.2 °F 25.2 °F 56% 29.71 in 10.0 mi West 24.2 mph 32.2 mph N/A   Clear
7:58 PM 39.4 °F 30.1 °F 22.5 °F 51% 29.75 in 10.0 mi West 18.4 mph 26.5 mph N/A   Clear
8:58 PM 39.4 °F 30.4 °F 18.3 °F 43% 29.75 in 10.0 mi West 17.3 mph 25.3 mph N/A   Clear
9:58 PM 39.4 °F 28.7 °F 12.7 °F 34% 29.74 in 10.0 mi West 24.2 mph 33.4 mph N/A   Clear
10:58 PM 38.7 °F 34.3 °F 10.6 °F 32% 29.76 in 10.0 mi West 5.8 mph 25.3 mph N/A   Clear
11:58 PM 34.7 °F 27.5 °F 10.9 °F 37% 29.77 in 10.0 mi NNW 9.2 mph - N/A   Clear